Regional Weather Roundup
Issued by NWS

Home | Current Version | Previous Version | Text Only | Print | Product List | Glossary Off
Versions: 1 2 3 4 5 6 7 8 9 10 11 12 13 14 15 16 17 18 19 20 21 22 23 24 25 26 27 28 29 30 31 32 33 34 35 36 37 38 39 40 41 42 43 44 45 46 47 48 49 50

330
ASUS43 KOAX 230510
RWRNE

WEATHER ROUNDUP FOR NEBRASKA
NATIONAL WEATHER SERVICE OMAHA NE
1200 AM CDT MON OCT 23 2017

NOTES: SATELLITE DATA IS BEING USED TO AUGMENT CLOUD COVER ABOVE
       12000 FEET.
       "FAIR" INDICATES FEW OR NO CLOUDS BELOW 12,000 FEET WITH NO
       SIGNIFICANT WEATHER AND/OR OBSTRUCTIONS TO VISIBILITY.


NEZ001>004-019>022-054>056-230600-
NEBRASKA PANHANDLE

CITY           SKY/WX    TMP DP  RH WIND       PRES   REMARKS
SCOTTSBLUFF    CLEAR     62  30  29 W20       30.03R
ALLIANCE       CLEAR     55  30  38 W16       30.00R
CHADRON        MOCLDY    49  29  46 W7        29.98R
GORDON         LGT RAIN  55  32  42 W7        29.96R
KIMBALL        CLEAR     53  28  38 W8        30.12R
SIDNEY         CLEAR     51  29  42 W13       30.08R
$$

NEZ057>060-069>072-079>082-230600-
SOUTHWEST NEBRASKA

CITY           SKY/WX    TMP DP  RH WIND       PRES   REMARKS
NORTH PLATTE   PTCLDY    43  36  76 NW6       29.98R
IMPERIAL       CLEAR     44  31  60 W8        30.02S
LEXINGTON      PTCLDY    52  29  41 W6        29.97S
MCCOOK         CLOUDY    50  28  42 W10       29.99F
OGALLALA       CLEAR     41  33  74 W8        30.01S
$$

NEZ005>010-023>029-035>040-094-230600-
NORTH CENTRAL NEBRASKA

CITY           SKY/WX    TMP DP  RH WIND       PRES   REMARKS
VALENTINE      CLOUDY    51  35  54 W9        29.89R
AINSWORTH      CLOUDY    55  36  49 W9        29.88F
BROKEN BOW     CLEAR     48  35  60 W9        29.92F
O`NEILL        CLOUDY    52  37  56 SW10      29.88S
ORD            CLEAR     51  31  46 SW10      29.89F
THEDFORD       PTCLDY    52  35  52 W5        29.94S
$$

NEZ041-046>049-061>064-073>077-083>087-230600-
SOUTH CENTRAL NEBRASKA

CITY           SKY/WX    TMP DP  RH WIND       PRES   REMARKS
GRAND ISLAND   CLOUDY    56  28  34 SW15      29.94F
AURORA         CLEAR     51  31  46 SW9       29.94F
HASTINGS       CLOUDY    52  28  39 S7        29.95F
HEBRON         CLEAR     54  31  40 S7        29.97F
HOLDREGE       CLOUDY    51  29  43 SW8       29.96F
KEARNEY        PTCLDY    52  28  39 SW10      29.95F
YORK           CLOUDY    50  32  50 S7        29.95F
$$

NEZ011>018-030>034-042>045-230600-
NORTHEAST NEBRASKA

CITY           SKY/WX    TMP DP  RH WIND       PRES   REMARKS
NORFOLK        CLEAR     53  32  44 S14       29.88F
ALBION         PTCLDY    54  31  41 SW6       29.90F
BLAIR          PTCLDY    53  33  46 S10       29.94F
COLUMBUS       CLEAR     55  31  39 SW13      29.92F
FREMONT        CLOUDY    55  31  41 S7        29.93F
TEKAMAH        CLOUDY    45  35  68 SE7       29.92F
WAYNE          PTCLDY    50  29  44 S5        29.88F
$$

NEZ050>053-065>068-078-088>093-230600-
SOUTHEAST NEBRASKA

CITY           SKY/WX    TMP DP  RH WIND       PRES   REMARKS
LINCOLN        CLOUDY    47  35  63 S7        29.96F
OMAHA EPPLEY   PTCLDY    50  36  58 SE12      29.96F
BEATRICE       CLOUDY    53  32  45 S9        29.98F
FALLS CITY     CLEAR     51  35  54 S13       30.00F
NEBRASKA CITY  CLEAR     50  36  57 SW9       29.98F
PLATTSMOUTH    CLEAR     51  33  51 S8        29.97S
$$

NEZ044-045-051>053-067-230600-
OMAHA AREA

CITY           SKY/WX    TMP DP  RH WIND       PRES   REMARKS
OMAHA EPPLEY   PTCLDY    50  36  58 SE12      29.96F
BLAIR          PTCLDY    53  33  46 S10       29.94F
FREMONT        CLOUDY    55  31  41 S7        29.93F
MILLARD        CLOUDY    53  35  50 S3        29.96S
OFFUTT AFB     CLEAR     48  35  60 SE5       29.96F
PLATTSMOUTH    CLEAR     51  33  51 S8        29.97S
WAHOO          FAIR      46  33  62 S7        29.94F
$$




USA.gov is the U.S. government's official web portal to all federal, state and local government web resources and services.